RH
82 83 84 85 77 74 72 69 64 60 43 25 19 15 14 9 9 14 14 24 14 13 14 12 11 9 9 10 11 13 18 24 21 20 10 8 8 9 18 30 40 42 43 44 47
88 88 88 91 91 88 82 81 78 71 66 46 28 23 21 13 15 22 15 15 6 10 14 16 15 13 10 10 10 11 15 17 15 12 9 8 8 9 13 23 37 39 42 46 46
91 92 91 93 96 92 89 86 85 82 76 66 44 35 29 16 18 21 15 6 12 15 14 15 16 12 12 12 12 12 12 12 10 10 8 8 16 35 24 41 52 49 48 47 47
95 93 94 92 95 93 91 90 88 84 78 72 61 49 33 16 24 19 12 9 13 14 14 15 16 15 15 14 16 11 11 11 12 15 10 10 30 46 48 53 46 46 49 48 49
100 100 98 97 96 96 96 88 86 86 80 75 66 56 32 30 25 16 16 13 13 14 17 17 18 18 16 17 17 14 14 16 15 16 32 33 43 48 51 45 45 47 48 49 51
99 99 100 97 95 99 98 98 83 81 82 76 66 52 22 60 24 15 14 13 15 14 16 18 18 18 19 19 16 19 19 17 16 16 33 39 46 40 48 43 46 46 49 50 53
99 100 99 100 99 99 99 96 94 90 83 80 72 43 29 52 30 16 14 15 16 15 16 17 18 17 19 17 20 21 18 16 15 16 34 32 42 55 46 44 49 49 50 51 55
95 93 93 93 95 93 94 95 88 92 87 82 71 38 52 39 30 20 14 15 17 16 16 17 18 20 20 20 22 21 20 13 15 17 25 20 35 54 45 44 51 52 52 54 56
77 76 78 85 86 94 95 98 86 89 89 78 56 45 61 44 29 19 19 17 16 17 17 19 20 27 24 19 14 24 14 22 17 22 23 22 51 54 46 47 53 54 55 55 55
70 67 65 68 91 98 98 89 91 82 74 68 63 59 48 39 24 19 19 17 17 18 19 26 32 30 31 16 15 13 22 26 20 15 29 40 60 58 52 50 56 56 57 58 57
79 72 67 62 70 99 97 80 81 77 65 66 62 57 40 28 24 16 18 17 17 21 24 33 26 24 24 28 26 25 25 21 18 20 33 46 54 56 55 55 58 59 60 62 63
83 72 67 62 67 91 87 87 75 69 81 66 68 58 49 41 54 26 18 20 23 26 26 26 29 24 27 31 31 30 32 28 22 29 28 52 52 55 56 57 57 61 65 66 65
82 70 76 64 88 91 91 88 69 56 82 70 66 66 58 53 61 52 19 22 24 29 28 31 25 29 29 33 35 35 33 29 24 35 49 49 46 59 58 60 62 66 68 67 69
82 74 82 91 83 93 89 80 59 57 72 45 59 54 58 53 58 45 20 20 26 28 28 30 25 24 29 31 30 35 30 28 24 25 29 38 29 49 59 64 64 68 68 68 66
80 78 87 86 72 81 70 77 58 51 34 35 58 42 50 55 35 33 26 21 35 29 34 48 32 34 31 25 31 33 31 29 26 29 34 35 35 39 63 66 65 68 69 66 64
78 81 88 84 79 76 74 70 60 61 33 48 55 56 60 50 46 27 27 19 22 30 29 32 25 29 28 28 25 29 36 41 43 38 42 30 30 24 64 59 65 71 68 67 66
82 76 85 84 76 74 70 63 62 43 30 37 51 49 50 52 52 28 37 32 43 44 45 32 29 23 25 28 30 29 32 41 47 49 42 42 37 26 62 67 64 71 70 71 65
89 77 78 84 75 64 58 75 43 32 45 41 40 41 52 42 42 46 33 41 31 30 36 40 46 30 26 29 30 34 31 37 50 52 42 48 44 36 68 67 69 68 71 70 69
91 85 76 78 78 66 82 94 40 39 41 39 24 27 38 38 46 40 44 37 32 31 45 42 42 29 27 27 24 36 43 28 46 58 62 46 56 71 74 74 76 71 68 76 72
98 90 81 70 77 69 88 80 65 50 44 36 13 25 33 40 38 55 42 38 36 29 29 37 46 30 28 27 27 29 31 42 60 90 72 48 59 47 88 80 77 85 78 85 74
70 91 60 74 76 92 90 77 61 49 44 39 46 34 42 42 41 48 42 37 34 30 30 31 41 38 32 36 34 38 38 43 42 48 60 55 58 80 72 73 79 79 85 80 86
83 92 77 78 98 93 82 71 58 53 46 47 51 54 60 59 58 47 46 36 35 33 36 34 45 46 41 28 26 29 35 40 57 71 62 61 72 78 73 74 73 75 86 88 83
90 95 100 82 92 85 64 60 62 63 57 54 54 56 56 58 47 64 56 44 38 38 40 39 55 66 55 42 33 36 31 41 56 55 76 91 75 78 76 77 73 88 82 84 90
95 99 100 98 80 64 69 65 71 61 63 58 58 58 56 56 55 56 51 41 46 46 50 51 53 62 71 56 54 52 39 44 56 95 91 84 83 98 95 93 87 78 85 86 89
96 93 80 95 96 92 68 67 64 71 59 63 70 63 60 65 61 62 53 60 54 49 56 56 56 59 50 47 50 51 51 49 76 82 94 74 79 81 90 89 93 90 89 84 83
100 99 93 86 68 78 75 70 76 65 63 69 69 57 63 72 66 58 58 60 58 53 60 65 63 64 66 52 63 90 58 53 61 78 93 98 69 69 73 74 84 80 86 83 85
93 94 90 84 91 82 80 75 71 66 64 55 56 62 70 75 59 57 54 54 51 59 65 71 74 93 81 65 97 96 83 74 63 56 67 75 61 84 88 79 74 74 69 72 75
Wind_Speed
7 6 6 7 7 9 12 15 15 17 19 21 21 23 25 25 16 5 3 3 5 10 8 3 4 4 4 3 3 2 3 3 4 5 2 1 3 5 9 9 8 7 8 6 11
9 7 7 8 8 9 10 14 16 17 18 21 23 24 24 22 8 6 3 4 8 9 7 9 4 5 3 2 3 3 2 5 2 3 2 3 6 4 4 7 8 9 12 13 15
9 9 7 8 9 10 11 12 14 16 17 20 22 24 23 16 1 3 4 6 8 9 6 5 4 2 3 2 3 2 2 3 1 2 1 3 5 5 5 9 8 6 9 13 17
11 9 10 9 9 10 11 12 13 16 18 19 22 24 20 7 3 4 3 6 7 7 6 5 4 2 2 2 2 2 2 2 2 3 2 4 5 7 10 8 9 10 10 14 18
13 13 11 9 9 10 10 10 13 16 18 19 20 22 11 5 3 4 4 5 5 5 7 3 4 1 2 2 1 1 1 2 3 1 8 11 10 10 12 11 12 12 13 14 15
15 15 12 10 10 10 11 11 10 14 17 17 18 19 3 5 3 5 4 5 5 7 7 6 1 1 3 0 0 1 3 5 4 2 6 14 7 5 5 10 10 10 12 13 14
14 16 14 13 12 11 12 12 11 11 12 15 16 13 1 8 5 6 3 2 4 5 2 3 2 1 1 2 0 2 3 4 4 5 5 16 5 5 9 9 10 9 8 10 12
11 10 12 11 12 12 14 13 14 12 11 13 12 6 5 5 8 10 6 1 1 3 4 4 4 3 1 2 3 2 1 2 2 8 5 2 4 5 7 8 8 7 6 6 9
14 13 15 16 13 14 13 12 13 14 13 11 4 2 7 7 1 4 4 1 3 2 5 3 4 3 2 1 1 2 3 4 2 3 5 6 4 6 6 7 7 6 5 4 6
11 9 10 11 10 12 10 10 11 14 7 6 2 2 6 2 2 2 3 3 4 3 3 5 4 2 2 2 4 4 4 4 5 5 5 4 7 7 5 7 6 4 4 5 7
4 6 8 8 6 5 4 7 4 1 0 6 1 3 2 3 2 1 6 6 3 5 1 2 2 5 4 4 4 1 2 2 1 3 5 1 9 11 8 6 5 3 3 5 5
5 5 5 7 8 11 6 3 2 3 4 11 12 10 11 2 3 2 7 5 4 5 4 1 4 6 4 2 4 5 4 4 3 4 2 7 7 8 10 5 6 6 4 3 4
5 4 4 6 10 8 6 3 1 1 2 6 4 4 5 8 6 7 10 4 4 6 8 7 4 5 4 2 3 3 4 4 5 2 3 6 5 9 8 7 7 4 3 3 5
8 5 7 11 7 6 3 7 4 3 2 4 2 4 4 7 5 10 15 5 3 9 6 5 2 7 5 4 8 7 8 8 5 3 5 2 7 6 10 11 9 4 3 2 3
9 8 9 10 6 5 2 8 4 2 2 1 2 1 1 4 3 4 3 1 8 5 4 5 4 4 4 7 10 6 6 8 6 4 3 5 5 3 8 12 13 6 3 3 4
12 10 13 5 4 2 7 10 3 5 6 1 2 2 3 1 3 2 3 3 2 6 6 8 1 4 4 3 10 5 5 3 2 2 7 10 9 11 7 8 9 6 4 3 4
15 11 12 3 1 9 13 4 3 3 2 2 2 3 1 2 2 1 4 5 5 2 3 2 13 9 4 8 1 11 7 4 5 5 9 4 9 14 8 7 10 12 6 4 3
17 13 10 5 3 11 4 4 3 2 2 2 1 2 3 4 2 3 3 3 4 3 1 3 6 6 4 16 9 11 14 7 9 6 4 5 8 2 5 8 10 9 7 5 4
17 14 7 6 3 7 4 1 5 4 2 4 1 2 2 2 3 2 5 4 6 13 8 4 6 3 4 4 12 5 10 11 4 2 3 4 2 3 8 8 8 7 6 4 4
17 8 4 8 5 6 2 4 3 3 2 0 5 4 5 2 2 1 4 3 4 10 11 3 10 8 13 4 4 13 5 7 2 5 7 6 5 7 14 14 11 8 6 5 4
12 3 6 10 9 2 5 4 2 4 2 2 2 2 4 3 5 3 2 3 3 1 9 7 6 6 6 3 5 5 9 6 4 11 6 6 4 3 11 16 15 10 7 7 4
7 2 4 16 3 3 6 3 2 3 1 1 1 3 4 3 3 6 8 6 4 2 2 6 3 8 11 14 12 11 8 8 9 7 6 7 7 4 4 11 12 11 9 6 5
6 3 5 10 5 7 5 8 1 0 2 2 3 6 2 3 5 7 6 4 4 3 4 2 1 5 7 6 14 10 16 8 3 6 17 6 4 3 4 9 10 11 10 8 7
3 3 2 3 3 9 11 12 10 5 9 9 8 3 4 10 6 8 7 3 3 4 8 4 8 12 13 4 1 4 17 13 6 5 3 11 2 6 9 10 11 11 11 9 6
2 3 4 7 10 11 8 5 10 9 10 10 3 15 12 6 8 17 15 7 7 9 5 7 15 11 18 15 12 13 8 11 14 12 7 5 8 7 19 17 13 10 11 9 7
3 3 2 3 12 16 18 12 18 9 6 6 15 11 11 18 21 8 8 7 9 3 2 2 8 7 18 16 15 16 19 14 15 16 12 12 17 2 5 13 13 13 12 9 7
7 2 4 6 5 11 13 16 8 12 9 19 18 13 14 25 17 16 15 16 14 12 12 4 4 3 9 6 5 9 15 18 16 18 17 16 11 8 8 13 17 15 12 10 8
Wind_Direction
293 311 322 333 351 355 356 353 356 360 357 353 353 352 349 342 349 21 48 14 353 356 354 344 19 37 49 71 47 131 86 167 187 166 169 10 89 47 58 74 53 39 62 39 9
282 297 310 319 335 344 349 349 350 352 353 351 351 351 348 341 352 41 19 16 3 360 355 26 17 10 57 24 26 72 146 198 204 177 178 74 78 67 65 56 68 78 51 38 35
273 287 298 309 323 333 341 348 353 349 349 348 348 351 346 343 27 12 19 11 9 0 2 29 21 27 62 1 2 132 152 172 215 269 302 93 72 55 122 53 27 70 36 30 39
261 263 275 291 309 319 333 342 349 350 347 351 349 351 348 350 22 360 350 350 4 3 2 18 30 45 75 114 350 154 137 154 169 16 31 67 87 70 50 102 86 70 58 45 40
261 262 260 275 289 304 314 334 339 343 345 345 347 351 3 349 284 346 320 343 8 22 40 33 47 49 178 147 97 204 187 216 198 48 79 85 76 110 98 101 87 73 59 51 44
249 253 250 258 280 293 302 308 322 333 333 339 344 353 26 322 328 316 333 346 37 50 44 39 66 131 108 70 96 129 290 278 276 121 123 121 113 117 129 122 96 76 61 52 43
249 255 259 262 268 273 285 290 305 323 324 328 341 355 55 255 290 304 317 354 18 52 68 53 46 319 143 171 28 116 297 303 242 178 124 125 71 84 132 118 98 83 75 62 49
242 244 252 253 261 270 274 285 300 302 311 318 329 343 254 270 295 294 277 290 5 60 81 73 29 87 357 321 47 125 81 241 102 139 164 304 174 137 158 134 105 90 81 70 57
254 253 261 263 260 253 257 279 286 294 300 305 310 13 270 308 356 1 237 149 107 86 62 76 67 60 5 95 332 6 200 200 162 51 134 219 146 158 160 142 119 99 79 66 54
246 242 248 252 242 237 252 271 281 291 295 298 313 336 261 224 280 55 152 106 64 60 40 45 39 36 53 184 242 208 214 221 185 150 75 135 130 143 140 143 128 111 78 55 41
258 248 235 236 241 212 240 292 305 282 242 211 297 273 296 318 66 101 139 132 106 64 89 30 40 261 262 240 327 332 248 239 279 90 111 293 159 171 156 142 146 125 83 48 36
232 246 236 221 186 188 210 185 211 147 304 266 257 265 270 17 321 255 172 149 159 170 146 67 248 279 238 233 248 285 301 276 285 60 189 164 182 185 187 181 174 164 140 75 35
226 224 201 179 160 167 182 207 174 37 270 279 228 238 236 185 232 231 175 157 177 156 188 204 193 99 159 195 240 238 229 246 261 84 67 149 213 198 203 179 173 147 112 66 34
215 188 169 152 157 158 200 189 161 109 29 272 266 273 176 162 249 221 194 159 179 203 187 243 257 220 207 223 209 253 206 233 255 268 266 254 278 209 202 195 202 177 112 74 49
194 181 167 171 152 165 163 162 149 98 330 48 190 301 164 184 315 31 145 28 235 190 183 236 169 171 185 222 174 231 198 211 213 220 288 214 266 130 171 215 208 186 134 85 55
181 185 178 171 163 188 158 150 131 49 251 96 133 168 119 249 332 83 109 95 186 223 235 254 202 191 218 237 210 153 115 77 76 152 246 228 217 265 187 221 179 161 136 79 51
179 177 186 155 112 137 143 102 61 171 9 167 171 174 183 167 237 140 153 170 197 185 243 314 245 241 197 240 136 196 175 209 224 208 250 139 207 257 169 169 167 157 142 120 78
173 168 196 194 114 153 124 66 151 197 242 328 100 80 184 165 249 189 135 215 218 103 272 290 291 180 202 220 221 200 205 211 239 217 250 146 228 260 154 130 116 122 127 128 86
169 168 189 205 171 163 83 151 212 195 184 175 79 167 242 262 191 178 212 215 208 188 208 226 250 285 219 221 206 194 218 234 256 78 286 220 225 181 152 159 152 141 139 126 89
153 144 200 196 165 107 120 238 234 241 305 278 188 169 191 227 205 140 213 182 218 191 205 230 275 248 268 177 216 225 168 215 185 221 235 231 249 232 200 194 182 172 166 150 137
148 115 204 189 135 72 205 213 272 263 325 344 240 268 213 198 212 199 262 301 243 287 208 209 238 242 332 209 206 212 226 230 256 214 249 263 237 199 203 190 184 179 170 165 154
132 151 186 163 160 182 216 192 300 347 74 287 11 255 223 199 232 225 221 221 107 114 292 219 254 260 253 263 255 272 263 261 237 229 242 272 264 345 175 164 171 171 164 154 145
145 137 128 174 192 207 221 220 260 283 298 346 251 217 189 203 267 224 228 227 289 284 243 176 228 285 276 251 250 243 238 230 238 247 235 238 260 36 126 134 160 157 162 161 155
135 130 104 222 238 202 219 241 230 215 236 237 253 318 257 252 251 268 260 279 322 258 258 192 229 232 252 261 206 252 252 211 226 226 209 221 198 211 213 184 169 165 161 160 143
175 184 174 190 218 213 189 202 210 221 220 203 251 226 232 258 259 246 262 260 265 261 252 203 248 234 243 247 252 266 241 221 208 232 234 259 222 223 210 194 171 152 159 157 145
153 164 156 169 206 208 223 229 229 223 221 216 231 234 225 234 231 243 258 257 253 252 233 192 265 273 267 270 266 254 250 237 212 236 244 249 259 92 142 155 163 168 168 157 157
183 133 141 173 174 201 214 216 221 215 240 238 246 247 247 242 245 246 260 257 258 275 285 250 223 229 262 255 261 259 235 229 236 227 211 222 239 158 153 180 175 169 170 161 159